Wind_Speed
7 6 6 6 5 5 5 5 5 4 4 4 5 5 5 5 5 5 6 6 6 7 7 8 8 9 9 10 11 12 13 14 15 16 17 13 8 4 2 4 2 1 2 2 1 1 4 4 3 2 1 1 1 2 2 2 4 2 3 3 1 3 3 5 6 4 1 4 6 10 7 3 5 9 9 5 6 13 16 20 22 21 22 23 22 21 20 20
7 6 6 6 6 6 6 6 6 5 6 6 6 6 7 6 7 7 7 8 8 8 9 9 10 10 11 12 12 14 15 16 17 16 10 3 4 7 8 4 2 3 3 2 2 2 5 5 3 2 1 1 1 2 3 4 5 3 3 2 3 5 5 5 6 4 2 4 8 11 8 4 8 11 10 7 8 11 12 21 26 26 26 23 21 18 17 18
7 7 7 7 7 7 7 7 7 7 7 8 8 8 8 8 9 9 9 9 10 10 10 11 12 12 12 13 14 15 15 17 16 7 3 8 10 9 6 4 6 6 4 3 3 4 6 5 2 2 2 2 1 3 3 4 5 4 3 2 6 7 5 8 11 11 9 8 8 11 11 10 13 13 9 8 11 10 8 17 22 24 29 26 22 19 18 19
8 8 8 8 8 8 8 9 9 9 9 9 9 9 10 10 10 10 11 11 11 11 12 12 13 13 14 14 14 14 14 15 8 5 8 7 6 2 5 9 9 8 6 5 5 6 8 6 3 3 4 2 3 4 4 6 6 3 5 5 6 5 4 10 14 14 13 10 10 15 14 14 15 11 9 9 10 9 11 19 20 24 32 31 27 25 23 22
9 9 9 9 9 9 9 9 9 10 10 10 10 11 11 11 11 12 12 12 12 12 13 14 14 14 14 14 13 11 10 7 2 8 7 6 5 5 9 11 11 9 7 5 6 8 8 6 4 4 5 3 2 3 4 9 8 3 6 9 8 5 3 10 13 12 13 13 15 15 11 10 11 8 9 9 7 12 20 25 26 27 31 30 28 27 25 24
10 10 10 10 10 10 10 10 10 10 10 11 11 12 12 12 13 13 13 13 13 13 13 13 14 14 13 12 11 9 5 1 4 7 6 7 8 11 11 12 11 9 6 6 7 8 8 7 6 6 4 2 3 4 5 7 8 4 5 8 12 11 9 13 13 11 14 14 13 12 10 12 12 10 11 11 17 25 30 29 29 27 25 24 25 24 23 22
11 11 11 11 11 11 11 11 11 11 11 12 12 13 13 13 13 13 13 13 13 13 13 13 13 12 12 11 10 7 8 8 6 7 9 10 12 12 11 10 9 6 4 6 7 8 9 8 8 6 3 1 2 5 6 5 7 7 5 6 11 13 12 16 15 14 17 17 18 16 16 15 12 10 8 16 30 33 28 25 25 24 21 21 22 22 22 22
12 12 12 12 12 11 11 11 12 12 12 12 12 13 13 13 13 13 13 12 12 12 12 12 11 11 10 10 8 6 10 12 7 7 11 12 12 10 9 9 6 5 3 6 8 9 9 8 9 6 3 2 3 4 4 5 4 6 5 6 8 9 11 15 16 19 22 22 22 18 17 19 19 15 11 23 32 24 18 19 21 21 21 21 21 21 21 21
13 13 12 12 12 11 11 12 12 12 12 12 12 12 12 12 12 12 12 11 11 11 12 11 11 11 9 9 7 5 9 10 7 8 9 9 10 9 9 8 6 6 5 7 9 10 10 7 7 6 4 4 3 3 2 3 2 4 4 5 7 10 13 16 18 24 25 22 19 12 16 24 23 15 11 21 20 13 16 18 19 21 21 19 18 19 18 17
13 13 12 12 11 11 11 11 11 11 11 11 11 11 11 12 11 11 11 11 11 11 12 11 11 11 10 10 5 4 8 9 8 8 7 7 8 9 9 8 7 7 6 8 10 12 11 8 6 5 5 3 2 3 1 1 2 4 7 9 11 13 17 18 19 26 26 21 18 9 13 23 17 5 7 17 11 12 21 20 19 20 19 17 16 14 12 13
13 13 12 12 11 11 11 11 11 11 11 11 11 11 11 12 12 11 11 11 11 11 12 12 12 11 11 10 8 8 10 9 9 10 9 8 8 10 10 9 9 8 8 10 11 13 12 11 7 4 4 2 2 4 3 2 3 7 9 11 14 14 18 21 19 24 19 12 13 7 8 15 8 2 11 18 12 14 22 22 22 19 17 15 11 9 9 11
13 13 12 12 12 12 12 12 12 12 12 12 11 12 12 12 12 11 12 11 11 11 12 12 11 11 11 12 14 13 13 12 11 12 12 12 11 11 11 11 11 10 9 10 11 13 13 12 9 6 5 3 1 3 3 3 7 11 8 6 11 9 12 20 16 14 8 4 6 4 2 9 2 8 17 19 15 18 22 25 23 17 14 11 8 8 7 6
13 13 12 12 12 12 12 12 12 12 12 12 11 11 11 11 11 11 11 11 11 11 11 11 11 11 10 11 15 14 12 12 12 11 12 14 14 13 12 12 11 9 10 10 11 12 13 12 10 8 6 4 2 2 4 7 8 10 5 1 6 7 6 14 8 4 3 4 6 7 1 7 6 14 19 16 17 19 22 25 21 16 13 10 7 6 5 3
12 12 12 12 12 12 12 12 12 12 12 12 11 11 11 11 11 11 11 11 11 11 11 11 10 11 10 12 13 13 13 13 12 12 13 14 15 14 13 11 8 7 9 10 11 11 11 10 9 8 6 6 5 4 5 7 4 3 2 0 2 2 5 10 8 2 3 5 6 9 2 6 8 15 17 15 17 18 21 24 21 15 11 8 7 6 7 6
12 12 11 11 11 12 12 12 12 12 12 12 11 11 11 10 11 11 10 10 10 10 11 11 11 10 10 12 13 12 12 12 11 11 12 13 14 12 10 8 6 6 8 10 10 11 10 8 8 6 4 5 4 2 3 4 3 1 1 3 2 3 4 12 12 3 2 3 5 8 2 6 8 13 16 17 20 19 19 24 21 13 9 8 8 9 10 9
11 11 11 11 11 12 12 12 12 12 12 12 11 11 11 10 11 10 10 10 10 11 11 10 10 8 7 10 10 9 9 8 7 7 8 10 11 9 6 4 4 5 6 7 8 9 9 7 6 5 3 3 1 4 4 4 4 2 2 4 3 3 2 7 8 1 3 1 2 3 2 4 6 12 19 22 25 23 19 23 18 10 7 8 9 10 11 10
11 11 11 11 11 11 11 11 11 12 12 12 12 11 10 10 10 10 10 10 12 12 12 10 9 8 8 10 9 8 7 6 5 7 8 9 9 6 5 5 5 5 4 5 6 6 6 5 4 3 1 1 3 5 3 2 4 3 1 3 4 4 3 3 5 4 4 3 1 2 3 6 9 14 24 27 24 22 20 19 10 7 8 11 12 12 12 12
11 10 10 10 10 10 10 11 11 11 11 11 11 10 9 9 10 11 12 12 13 11 10 10 7 4 8 13 10 6 5 5 6 7 8 8 7 7 8 6 3 3 4 4 5 6 5 3 4 1 2 2 2 5 3 5 5 4 3 3 4 3 4 5 4 4 5 5 3 5 3 8 10 11 21 22 15 14 15 10 6 11 13 14 15 16 16 16
11 10 10 9 9 9 10 11 11 11 10 9 10 9 8 9 10 11 13 13 12 7 5 8 10 4 3 6 7 6 6 6 6 8 9 9 8 9 8 4 4 4 4 3 4 6 6 3 4 1 1 4 6 8 10 10 7 6 5 4 4 5 6 6 6 4 2 4 6 6 5 8 9 9 15 14 8 7 7 4 12 15 17 18 19 20 20 20
11 10 10 9 9 9 9 10 10 10 9 7 8 8 8 7 5 6 9 13 15 13 10 9 12 12 9 7 7 8 8 6 7 10 10 10 11 8 6 5 4 4 3 4 3 4 6 3 2 5 8 11 12 11 10 6 2 2 2 3 5 6 6 6 6 6 0 1 7 5 3 6 8 10 14 13 11 10 7 14 16 17 18 19 21 21 21 22
11 10 9 9 9 9 9 9 10 9 8 7 7 7 6 4 2 3 6 10 15 17 18 18 17 20 20 17 14 12 9 7 8 10 11 12 11 7 7 7 4 2 3 4 4 2 5 4 8 12 12 9 6 6 6 3 1 2 3 4 6 5 7 7 5 6 1 2 5 2 3 7 9 10 11 12 11 11 11 16 16 17 19 19 20 22 22 23
11 10 9 9 9 8 8 9 9 9 8 8 7 6 6 5 5 5 5 8 14 17 19 21 22 24 25 24 22 19 15 10 9 12 12 12 12 9 8 8 4 3 3 4 4 2 2 5 13 13 6 1 0 3 5 5 4 4 3 2 5 4 4 7 5 4 2 1 4 4 4 7 10 6 8 11 10 11 14 16 15 17 18 18 20 21 23 24
13 11 10 10 8 8 8 9 9 9 8 8 8 7 6 5 5 5 4 5 12 16 16 19 21 24 25 24 23 21 19 14 12 14 14 14 15 13 11 9 5 3 4 4 6 4 3 7 12 10 4 2 3 3 5 4 3 4 4 3 5 4 1 4 5 4 3 1 3 4 4 6 7 1 8 11 13 17 19 20 19 18 19 19 19 21 23 25
14 12 11 10 9 9 9 9 10 9 9 9 8 7 6 5 4 4 4 2 7 11 12 13 14 14 16 16 16 16 17 14 9 10 15 17 15 11 10 10 6 3 4 7 8 6 8 7 3 3 6 6 4 4 4 4 3 4 6 6 6 5 5 6 3 4 4 4 2 3 5 5 5 1 5 7 12 16 17 19 19 18 19 20 21 22 23 25
15 14 12 11 10 10 9 10 10 10 10 9 9 8 6 4 2 2 3 1 3 7 5 6 6 6 7 8 8 11 12 10 8 9 14 19 17 8 5 9 7 4 5 7 6 6 11 9 1 4 3 5 5 5 4 6 4 4 5 9 10 8 7 5 2 4 4 4 3 4 4 5 5 1 4 5 6 9 11 14 15 15 16 19 21 22 23 25
17 16 14 13 11 10 10 9 10 11 11 10 9 7 5 4 1 1 1 3 2 4 3 4 5 4 5 6 8 10 5 5 9 11 13 19 18 9 2 5 5 4 5 6 3 3 6 6 5 5 4 5 5 5 5 7 5 2 4 7 8 6 4 4 1 2 1 4 3 4 1 5 6 3 4 5 5 6 7 10 11 13 15 17 20 20 22 25
19 18 16 15 12 11 11 9 9 12 11 9 9 7 5 3 2 2 2 3 3 3 4 3 4 4 4 7 11 10 2 3 7 9 14 17 16 10 4 2 2 3 4 5 1 3 2 1 3 5 5 5 5 5 6 7 7 3 4 4 5 5 4 4 4 2 3 2 5 2 3 4 6 4 4 8 8 5 5 6 7 10 13 15 18 19 21 23
19 18 17 17 15 14 13 10 11 13 11 9 8 8 6 3 4 3 3 1 2 2 4 2 4 4 5 9 12 7 3 6 5 5 12 15 13 8 4 5 4 4 2 5 3 5 1 2 4 6 4 4 6 5 6 8 5 6 5 5 6 6 6 4 5 2 1 2 5 3 2 2 6 4 2 6 5 4 4 4 4 7 11 14 16 18 20 22
21 20 19 18 17 17 17 16 14 14 12 10 9 8 6 6 4 3 2 1 1 2 2 3 4 5 7 8 7 3 4 4 1 5 11 11 11 6 1 4 5 2 2 3 5 5 1 1 4 6 5 5 6 3 6 8 3 4 4 5 5 5 4 4 5 3 2 2 5 6 5 3 5 4 2 3 3 4 5 4 4 7 10 13 15 17 18 20
24 23 21 20 21 23 23 22 19 16 14 12 11 9 8 7 4 2 3 3 0 1 3 4 3 5 6 5 1 1 3 2 2 7 7 5 8 5 1 2 2 1 2 2 2 5 2 2 1 3 4 5 5 2 2 4 4 5 5 5 6 5 5 4 2 4 2 4 7 8 10 7 4 5 4 4 3 5 8 5 5 8 11 13 15 17 18 19
26 26 24 24 25 26 25 25 23 20 17 14 12 11 10 5 2 3 5 1 2 1 3 3 2 4 6 4 2 2 2 2 4 7 4 2 3 2 1 1 1 2 3 5 3 5 4 2 3 3 3 4 6 3 3 3 4 6 5 4 3 4 4 4 4 4 1 6 7 5 7 6 4 5 3 3 4 3 10 10 9 10 13 15 16 17 18 19
28 27 26 27 26 24 23 22 21 21 20 15 14 13 9 2 1 3 3 1 1 2 3 3 2 4 5 4 3 4 2 2 5 5 3 2 3 3 2 3 3 1 3 4 3 5 3 4 4 3 2 4 5 3 2 5 5 5 4 5 3 3 3 3 2 0 3 7 5 2 5 3 5 5 2 3 6 3 7 12 15 17 17 17 17 17 18 19
29 28 27 27 24 23 23 19 17 21 21 18 16 11 5 1 4 4 3 1 1 1 1 2 2 3 5 3 2 3 2 2 5 4 2 3 2 4 4 3 4 2 2 4 2 2 3 5 2 2 4 6 8 4 2 1 2 4 5 5 4 2 1 3 4 2 4 5 3 2 4 2 4 2 2 3 5 2 11 17 19 21 21 19 18 18 18 19
28 26 26 25 23 23 21 19 21 23 23 23 17 6 2 3 4 3 5 4 1 1 1 2 3 2 3 2 4 3 2 2 4 5 2 3 2 3 4 4 4 2 1 2 1 3 3 5 3 4 2 6 9 6 5 5 3 4 5 5 5 4 4 4 4 3 4 4 3 2 2 2 3 1 3 2 4 6 15 19 19 20 20 19 18 18 18 17
25 24 23 21 21 22 21 22 24 23 25 25 13 3 4 4 2 3 4 3 1 0 1 2 4 3 0 1 3 2 3 2 2 5 3 3 3 3 3 4 6 5 3 2 2 2 3 6 6 3 1 6 7 4 6 6 1 2 3 4 2 4 5 3 3 5 3 3 3 2 3 3 3 1 2 4 6 8 12 15 16 17 17 18 18 17 17 16
23 21 21 21 22 22 22 23 24 26 29 22 8 4 6 3 2 4 2 2 2 2 2 1 3 2 2 2 2 1 2 1 2 3 2 3 4 5 4 4 7 9 7 4 3 2 2 5 5 2 1 3 4 3 4 3 2 1 3 3 4 4 5 2 3 0 2 2 4 2 2 2 1 0 1 4 4 4 6 10 14 16 16 17 17 17 16 15
21 21 22 23 24 22 21 22 22 26 27 16 6 6 4 1 4 4 1 2 2 2 4 1 1 3 3 2 2 2 1 1 2 2 2 2 3 5 5 3 4 10 11 5 3 3 2 4 5 1 2 3 1 2 2 2 3 4 3 5 3 1 4 3 1 2 2 3 4 1 3 3 1 2 0 2 3 5 5 6 10 13 15 16 17 17 15 14
17 18 18 21 24 23 23 22 22 25 21 9 6 7 3 3 4 3 2 3 3 3 3 2 3 2 3 2 2 3 2 2 2 2 2 2 3 4 5 3 1 4 8 5 1 2 1 3 6 1 3 2 3 3 2 4 2 4 3 3 3 1 1 1 2 2 2 4 4 4 5 3 4 4 4 6 10 9 7 6 8 11 16 17 17 17 15 14
12 11 10 15 20 21 21 20 20 21 14 5 6 6 3 3 5 5 4 3 3 3 2 2 3 0 2 4 3 2 2 3 3 2 2 2 3 2 3 2 1 2 2 7 4 2 1 2 5 2 1 1 4 2 2 3 2 3 1 1 1 3 3 2 2 3 3 4 4 5 6 4 5 5 8 12 13 12 11 8 8 13 19 20 19 18 16 14
11 7 4 10 17 19 19 18 15 13 7 4 5 4 2 2 5 10 10 4 3 3 2 3 4 3 3 3 4 3 2 4 4 3 2 3 3 2 2 1 2 2 2 4 3 0 1 2 4 3 3 0 1 2 5 5 2 1 1 2 1 1 1 1 1 2 3 3 3 4 5 5 4 3 7 11 11 12 13 11 10 16 21 21 19 17 16 14
10 6 2 8 14 16 15 12 7 4 2 2 3 2 2 2 3 8 14 14 9 6 5 5 5 6 5 4 4 4 3 3 4 4 3 3 3 3 1 2 1 2 2 3 2 1 1 2 3 3 2 2 4 3 4 6 5 4 3 3 3 2 1 2 4 1 2 3 4 4 5 6 4 2 4 6 8 11 16 15 14 20 24 21 18 16 15 14
9 3 2 8 13 14 12 6 3 4 3 3 2 1 3 3 2 6 11 14 11 8 6 5 5 6 5 4 4 4 4 3 4 4 4 4 5 3 1 2 1 1 3 2 2 2 2 3 1 3 4 5 4 2 1 4 5 5 2 2 3 3 4 3 5 3 1 1 2 2 3 4 2 3 1 5 11 16 22 21 19 22 24 20 17 15 14 13
8 4 4 8 13 18 13 3 4 5 4 5 5 7 8 6 4 5 7 8 7 5 5 4 4 6 6 4 4 4 4 4 4 6 4 4 4 2 0 1 2 1 4 2 2 1 3 3 1 3 4 3 3 4 4 3 4 3 1 1 2 2 3 4 4 2 1 2 1 0 3 3 2 4 3 8 12 17 22 22 19 19 20 19 17 16 16 15
9 7 7 10 17 22 13 3 4 6 6 5 5 8 10 8 6 6 6 7 7 5 4 3 4 7 6 3 5 5 5 5 5 5 4 3 2 1 1 1 1 2 2 2 2 3 2 1 2 1 3 5 4 4 5 5 2 1 1 1 1 3 4 2 1 2 1 4 5 4 5 4 2 4 5 8 10 11 15 18 16 13 14 17 18 17 17 17
9 6 7 16 25 23 12 5 4 4 7 7 6 7 7 5 8 11 9 9 10 7 4 5 6 7 5 3 4 5 6 5 4 2 2 1 1 0 2 3 1 3 2 2 4 4 3 2 3 3 5 8 7 4 3 2 1 1 1 1 0 3 4 2 0 1 2 3 4 4 5 3 3 3 3 3 5 7 10 12 12 11 11 13 16 18 18 18
9 3 3 13 22 20 15 11 6 2 4 6 5 6 8 6 5 9 12 10 12 12 7 5 6 5 4 4 5 5 6 4 3 2 2 2 2 2 2 3 1 4 4 4 5 4 2 1 3 5 8 8 6 6 5 3 2 2 2 2 4 4 4 4 2 3 2 1 3 6 6 4 6 5 3 4 5 6 7 10 12 14 15 16 17 18 19 18
7 3 4 8 11 13 13 11 9 4 3 5 4 3 9 11 5 5 11 10 12 14 8 3 5 6 5 6 5 5 6 3 3 3 2 3 2 2 2 2 3 4 4 5 4 4 3 2 4 5 6 5 3 5 3 3 3 5 4 6 8 6 5 6 5 4 2 1 5 9 6 4 9 9 6 7 7 5 7 12 14 14 16 18 19 20 19 17
6 3 9 13 7 5 8 12 14 10 6 5 4 1 4 9 7 6 8 7 8 13 8 3 6 9 8 8 6 4 4 3 4 4 3 3 2 0 2 2 1 1 1 2 2 4 4 3 3 3 4 4 3 4 4 2 2 4 5 8 10 9 7 6 6 7 7 6 8 10 7 7 10 11 6 7 9 10 11 15 16 16 16 17 19 21 20 18
8 2 7 13 7 3 9 17 16 13 11 7 4 4 5 7 8 7 4 2 4 9 10 7 8 9 8 9 8 6 6 6 5 5 3 3 3 3 1 2 2 1 1 2 1 2 3 2 1 2 3 4 1 3 3 3 2 3 7 10 10 11 9 6 8 11 10 9 11 12 12 13 13 10 6 8 11 13 14 15 16 17 17 17 19 22 21 19
11 7 6 9 6 3 6 13 11 9 10 9 7 8 6 5 8 5 2 5 5 5 8 11 9 7 8 9 10 10 9 8 6 6 6 5 3 3 3 3 2 2 1 1 0 1 1 1 1 3 0 4 2 1 2 2 2 4 8 11 10 9 8 8 10 9 6 9 12 11 10 14 12 5 5 9 9 8 11 13 14 14 14 16 20 22 19 17
14 12 9 7 5 3 5 7 8 6 6 8 9 9 7 9 10 5 2 6 7 4 6 11 10 6 5 8 11 12 10 9 8 8 8 7 5 4 3 5 7 5 2 3 2 0 1 1 1 4 1 5 3 1 0 2 3 6 12 15 14 11 9 9 8 7 9 10 10 8 7 10 10 4 4 8 7 7 11 13 12 12 13 17 21 20 17 16
16 13 10 6 2 4 6 4 5 7 6 8 11 11 9 9 9 8 5 5 5 6 5 8 9 5 4 8 11 14 14 11 8 7 7 7 6 7 5 5 8 7 5 5 2 1 3 4 1 3 2 4 2 3 1 4 5 8 11 10 11 10 8 8 8 10 10 7 6 7 8 9 8 6 5 6 6 8 12 14 14 14 16 18 19 18 17 16
Wind_Direction
210 210 211 212 213 217 220 223 226 228 232 236 241 243 248 250 247 252 259 262 266 271 279 283 288 294 297 303 306 308 311 311 311 311 307 302 288 270 152 139 112 41 346 353 353 178 180 174 189 194 171 138 123 154 146 159 167 136 95 106 199 202 199 196 188 190 178 249 284 316 307 224 291 305 312 310 277 286 290 287 285 279 273 274 278 285 294 301
222 221 223 224 226 229 231 235 238 242 245 248 250 253 258 258 258 261 264 267 270 275 281 283 287 290 293 299 302 306 309 310 311 310 308 298 137 121 114 103 21 340 330 321 306 196 178 173 178 182 130 110 112 169 178 189 181 162 111 136 222 202 212 217 214 236 230 256 281 306 302 271 296 305 311 308 282 292 295 292 294 290 287 286 285 284 290 296
233 233 235 235 237 239 242 245 247 251 252 254 257 260 262 262 264 265 267 269 270 275 278 281 284 286 291 294 299 305 308 311 313 310 132 126 128 122 94 26 345 328 311 286 270 198 188 189 172 192 194 188 210 199 196 196 195 201 140 157 243 216 233 263 263 270 274 284 295 306 304 291 297 300 301 305 301 296 276 286 293 294 300 304 303 299 296 292
240 240 242 242 244 244 247 250 252 256 258 259 262 263 264 266 267 267 269 270 272 275 279 282 284 286 290 293 298 303 310 317 308 163 148 147 152 144 7 349 334 322 299 274 249 209 205 199 167 194 207 218 218 212 219 207 202 196 163 187 233 202 226 264 269 280 288 303 305 303 304 297 300 299 293 307 315 297 274 286 291 294 303 310 310 307 301 295
243 245 246 246 247 248 250 253 255 259 262 265 267 267 269 269 271 271 272 273 275 278 281 283 285 287 290 293 298 302 317 335 177 163 178 200 220 283 322 325 321 316 292 256 235 216 207 194 174 189 205 238 190 182 242 219 198 184 212 227 237 202 207 263 269 278 288 301 301 300 300 296 304 299 290 292 277 275 287 296 298 299 306 311 311 308 303 298
244 246 247 249 250 252 254 256 260 262 265 268 269 271 272 272 274 274 275 277 279 281 282 283 285 288 291 293 297 298 301 308 183 185 209 225 253 283 300 308 312 309 280 237 228 215 203 195 195 194 193 251 198 191 249 230 205 223 261 247 250 245 243 266 271 278 291 296 289 287 286 295 305 298 296 279 264 279 292 298 299 303 309 313 312 308 306 304
243 245 246 249 251 253 256 258 262 264 267 269 271 272 273 274 276 277 279 281 283 285 284 285 286 287 291 292 293 288 264 262 248 224 237 247 263 279 287 298 306 301 266 219 221 209 203 200 203 200 166 246 237 220 261 270 216 220 266 271 269 266 258 267 271 279 288 286 281 286 288 291 291 291 302 281 278 286 296 300 300 303 310 313 313 311 311 309
245 247 248 249 252 254 256 259 261 264 266 268 270 272 274 276 278 280 283 283 285 285 284 285 286 287 291 291 290 276 261 272 275 250 254 257 262 270 275 289 296 298 265 209 211 203 202 201 205 210 179 208 229 231 292 318 227 200 241 278 290 289 285 286 288 287 286 284 286 291 286 281 282 286 283 276 281 291 301 305 305 306 311 314 315 318 320 317
251 252 252 253 255 257 258 260 262 264 266 268 270 273 276 278 280 282 282 283 285 283 285 285 286 288 289 288 285 270 269 280 287 271 261 255 256 260 267 276 276 291 271 212 205 204 201 199 211 216 212 222 229 250 356 12 254 213 241 283 294 294 302 302 297 291 288 287 286 287 283 284 288 292 275 270 280 302 304 302 308 313 315 320 327 333 339 332
253 254 256 258 258 259 260 261 264 265 268 269 271 274 276 278 279 280 280 281 282 281 283 283 284 286 285 283 262 242 276 282 283 279 267 255 255 257 261 262 264 278 263 224 209 208 208 204 214 212 223 234 209 258 326 166 270 298 302 310 305 304 306 300 290 286 288 290 282 259 267 281 287 302 265 270 288 308 297 299 309 314 317 327 340 347 348 335
254 256 257 258 258 258 260 261 264 265 267 269 271 272 273 275 276 276 277 278 278 279 280 280 283 282 283 278 237 233 278 282 277 278 274 269 257 251 253 252 263 269 253 236 219 217 217 214 218 211 224 232 220 284 290 254 307 318 326 324 308 315 310 294 283 282 286 292 280 230 247 284 289 189 251 269 295 300 292 300 307 312 323 338 352 350 340 329
253 255 256 256 256 257 258 260 261 262 263 265 266 268 269 272 273 275 276 277 277 278 279 280 282 281 284 276 254 257 278 276 270 271 269 270 259 251 251 254 269 270 249 240 230 224 220 219 222 222 230 222 240 319 301 306 327 314 329 332 303 332 317 288 281 279 269 261 272 176 266 305 274 223 255 276 293 288 290 299 307 325 346 1 6 349 348 341
252 253 254 254 256 257 258 258 259 261 262 263 266 269 272 274 275 277 277 277 278 277 279 279 280 283 281 271 268 272 274 268 263 260 258 261 262 262 264 269 275 267 245 236 234 228 222 224 226 228 238 233 238 286 289 311 320 305 319 21 302 346 316 283 286 289 270 266 235 157 211 290 255 252 264 284 290 288 296 300 315 347 7 21 27 15 33 41
252 253 254 255 256 257 259 261 262 264 266 268 270 272 275 277 278 278 278 278 279 278 278 277 279 283 273 266 274 275 268 265 259 253 252 255 261 268 274 279 275 254 238 231 230 228 226 227 233 238 242 244 259 281 308 325 321 297 317 78 309 313 278 290 305 319 319 297 200 162 203 263 268 277 279 296 296 294 300 304 324 355 19 41 57 68 75 74
253 254 255 256 258 259 261 264 266 268 270 271 272 274 274 275 275 275 276 275 276 275 275 277 279 278 270 268 272 270 263 260 255 251 250 253 260 268 273 273 258 235 226 227 229 230 230 227 234 241 240 247 267 332 352 344 341 24 281 296 314 207 258 304 305 263 224 280 160 149 224 267 272 281 290 306 300 297 304 309 330 2 36 59 73 83 86 86
251 252 253 254 256 258 261 263 265 266 268 269 269 269 268 268 269 270 271 270 271 270 270 275 271 262 267 274 270 258 253 251 249 245 241 247 255 260 259 241 214 205 209 221 230 232 235 233 233 238 236 237 155 80 40 357 331 347 202 249 268 218 246 312 307 269 155 198 118 155 230 280 279 279 291 299 296 300 309 314 334 22 56 76 84 87 89 88
248 249 250 251 252 255 257 258 259 260 263 265 264 265 267 268 266 266 265 264 266 266 267 267 262 259 259 261 260 249 243 243 241 236 235 241 246 241 212 183 164 172 194 213 223 223 225 210 188 219 246 111 108 99 59 327 291 304 268 229 244 231 227 273 300 333 40 63 340 259 218 254 269 277 287 294 299 305 312 320 349 69 87 91 90 85 82 76
247 248 248 249 249 250 250 251 253 256 260 264 266 267 268 269 267 265 262 261 262 266 270 254 234 266 263 247 244 240 237 246 238 229 233 235 225 200 182 177 182 211 213 210 214 195 183 162 138 181 2 59 124 123 167 230 221 235 238 235 266 260 243 250 269 306 0 14 314 295 274 265 274 278 287 300 317 316 313 331 67 104 98 93 88 81 78 73
245 245 244 243 242 242 244 248 253 256 259 265 272 274 273 273 269 263 258 253 246 241 261 230 200 197 246 219 216 234 260 261 234 222 226 218 194 185 187 212 240 213 189 178 207 186 160 110 88 128 243 207 203 182 198 215 196 204 218 212 247 266 266 256 250 263 341 346 295 279 266 271 287 290 293 311 354 347 324 79 102 100 93 89 85 81 78 75
240 239 239 237 235 235 239 246 253 258 259 260 266 272 275 276 273 263 252 245 241 237 246 235 221 233 244 236 239 259 269 252 225 219 213 201 189 190 204 214 197 179 182 170 190 189 159 141 164 206 216 213 214 206 208 224 167 177 217 236 250 253 271 265 259 275 25 301 275 261 246 272 287 289 300 324 3 19 70 106 99 93 90 86 84 82 80 79
237 236 234 233 232 233 235 243 252 260 265 262 259 264 259 244 240 270 267 260 255 250 251 252 248 251 256 258 260 263 260 239 225 219 210 203 197 197 199 181 146 163 212 155 123 132 148 178 222 219 219 217 213 195 205 250 269 242 237 261 269 247 259 260 255 285 337 162 265 314 348 295 287 290 320 353 18 31 78 104 97 95 93 87 88 85 85 86
236 234 230 232 231 231 234 243 254 260 265 260 255 256 247 235 241 266 290 284 272 264 257 256 255 254 254 255 256 255 253 250 239 225 215 203 197 199 187 166 157 190 176 124 104 105 158 225 238 231 224 263 297 150 176 218 219 221 206 227 260 237 265 281 279 306 355 151 271 335 348 289 284 301 8 36 63 62 77 96 98 98 94 88 89 87 91 92
235 231 229 230 226 227 233 242 251 253 254 250 245 244 243 246 251 274 295 288 284 281 268 257 254 252 252 252 252 247 241 241 241 228 212 195 194 198 184 169 186 177 149 168 160 150 192 241 251 236 178 167 247 197 165 200 227 211 185 187 250 240 211 277 292 319 334 312 272 322 321 283 278 335 54 55 79 78 79 88 87 90 91 89 91 90 92 92
237 231 230 228 222 228 236 244 247 242 240 237 233 234 239 248 253 295 300 267 285 288 272 256 251 252 251 250 246 233 226 229 235 221 204 196 191 192 192 184 183 180 191 195 175 182 220 236 256 145 151 171 228 244 169 178 247 238 207 204 237 249 217 220 279 328 332 344 12 6 333 294 277 195 89 71 76 75 75 79 77 80 86 89 93 92 92 92
239 234 231 225 223 234 243 245 239 232 233 228 224 227 224 233 248 335 322 330 291 279 264 239 232 236 232 228 221 207 209 219 218 208 200 198 190 177 197 189 181 208 206 181 166 210 241 243 194 98 140 168 197 247 201 175 220 272 232 212 220 236 233 228 316 15 7 331 340 33 355 291 301 329 149 125 74 64 65 68 69 73 82 88 90 91 94 96
240 236 229 222 225 237 245 244 231 223 225 219 214 215 208 215 239 26 41 46 316 255 209 192 199 199 194 184 172 165 177 226 212 204 196 196 195 184 172 179 186 214 183 159 162 229 252 245 209 202 208 189 204 256 228 175 163 270 249 208 206 212 222 231 178 85 134 255 296 50 83 270 308 316 189 146 90 73 66 60 65 73 82 90 93 96 98 98
240 235 226 222 223 231 238 238 224 216 215 215 209 203 203 203 152 121 79 17 296 209 147 164 176 176 184 170 163 157 163 192 173 189 189 189 197 192 191 208 193 211 170 129 171 241 214 123 176 200 209 206 222 256 228 164 134 235 250 146 136 146 172 189 135 138 219 252 318 8 141 255 292 280 198 139 108 86 72 65 71 81 90 97 101 103 103 102
236 231 226 221 222 232 237 235 225 215 212 212 203 196 195 175 158 139 96 349 273 140 122 145 144 153 163 162 168 162 140 148 138 179 183 183 192 185 208 227 182 203 197 132 196 259 134 138 192 173 159 194 216 232 192 149 138 243 224 118 112 133 150 135 106 122 300 3 305 277 144 245 270 273 185 139 133 137 137 126 104 102 108 109 108 108 107 106
234 231 229 225 228 237 238 234 227 217 213 207 196 195 185 163 152 108 96 208 235 96 133 150 135 149 144 147 173 170 140 154 138 176 174 180 194 182 214 221 179 214 257 151 207 263 26 195 207 152 150 204 215 226 175 158 178 218 155 89 59 67 80 81 100 107 33 341 252 214 172 209 267 281 203 169 200 183 161 149 145 135 126 121 118 116 112 109
233 234 233 230 235 240 238 233 225 217 213 204 195 187 170 155 132 122 197 209 83 94 135 146 164 162 136 120 148 191 175 207 120 146 160 177 191 188 144 174 124 118 311 355 252 260 311 329 239 163 189 196 161 109 121 156 155 128 94 51 27 21 34 42 63 80 55 283 251 211 188 187 262 286 201 194 244 178 155 150 165 156 143 136 129 124 119 114
231 232 234 236 239 241 236 230 224 217 208 198 188 175 159 142 95 172 206 196 67 138 134 142 175 153 143 131 152 186 179 187 145 140 147 147 169 177 101 118 78 69 347 326 298 301 325 307 261 245 212 149 113 83 27 37 89 100 82 66 38 340 6 20 360 46 123 253 264 225 181 170 225 260 228 262 309 180 161 162 169 164 156 148 138 132 126 119
232 232 236 240 240 238 232 232 229 212 199 188 180 170 152 137 234 196 216 10 91 190 165 173 196 176 171 147 159 184 164 177 175 154 149 142 156 189 190 181 169 80 320 260 267 330 312 242 265 312 252 166 122 85 4 11 50 87 98 102 95 312 343 348 298 262 219 249 267 183 144 166 237 244 259 310 331 333 153 155 160 160 157 152 143 138 131 124
237 236 239 240 238 232 227 226 213 192 184 177 172 162 131 193 215 191 202 218 174 198 148 136 154 159 146 133 196 190 153 189 183 166 151 124 146 232 256 223 170 144 263 219 239 331 297 293 294 338 280 196 158 146 212 279 111 138 144 138 146 172 202 258 256 262 265 266 278 166 149 242 266 291 339 325 333 20 133 146 157 156 154 152 146 141 134 128
237 236 236 234 231 225 214 201 188 180 176 169 160 138 117 208 212 183 201 219 268 316 345 85 114 113 107 144 224 189 153 218 169 150 144 113 120 253 265 243 193 153 134 172 197 186 241 300 225 192 241 179 174 185 169 145 151 178 158 140 154 163 172 219 226 217 252 280 295 255 184 205 213 292 329 1 32 98 133 147 154 152 153 152 147 144 137 132
230 226 224 219 211 203 193 186 184 181 176 165 148 140 191 200 200 175 205 220 225 242 268 60 94 97 22 264 259 201 182 239 145 130 149 154 174 204 211 216 192 163 136 168 238 182 204 263 250 239 182 156 177 196 137 112 116 227 128 115 172 186 172 212 216 180 188 286 291 241 218 203 177 242 355 69 70 93 126 142 147 150 155 154 152 148 143 139
217 208 203 197 191 187 184 183 181 180 176 162 147 211 203 196 182 179 201 175 156 145 138 45 71 102 269 286 293 259 171 199 149 137 187 193 199 205 205 220 191 178 175 175 212 204 196 263 281 343 354 178 179 178 143 138 196 171 121 175 216 177 132 136 268 153 108 243 262 218 226 279 337 275 45 77 82 101 127 142 149 156 161 162 160 155 150 148
199 191 188 183 182 183 183 182 179 179 177 166 177 211 192 216 195 185 189 115 109 99 121 161 197 173 216 250 263 247 167 203 190 165 204 223 224 201 198 230 190 187 197 191 214 219 192 262 274 159 191 239 162 122 71 59 132 129 172 214 211 123 86 100 239 332 24 244 271 283 228 245 256 251 302 108 167 183 180 166 162 168 174 175 170 162 158 156
187 188 190 183 182 184 183 182 183 181 176 172 210 211 190 222 203 181 183 115 79 61 95 184 215 176 186 195 247 243 180 188 194 172 192 231 237 185 169 203 155 192 209 186 196 253 156 268 279 195 179 271 16 85 46 4 71 128 185 198 125 144 274 85 171 225 247 247 278 295 268 239 215 210 190 197 200 193 188 183 180 188 189 185 178 170 167 165
184 190 201 192 188 189 185 187 188 182 177 184 211 208 189 212 224 216 200 123 100 102 95 202 207 197 186 177 198 226 192 193 188 182 190 204 230 190 125 162 118 35 171 157 170 263 115 241 280 317 214 300 30 78 185 270 341 69 110 316 70 166 184 171 171 180 212 239 260 284 287 269 236 203 183 200 199 180 178 186 194 198 192 187 181 175 175 174
174 172 203 196 190 191 188 192 196 189 184 195 198 199 177 189 233 231 222 204 152 168 201 199 190 215 227 203 203 211 217 208 186 186 207 199 233 260 57 96 138 77 54 124 152 33 86 214 256 305 335 93 153 213 191 191 193 120 165 238 260 205 164 248 234 137 152 206 227 255 269 266 256 202 187 202 192 174 179 181 189 198 194 189 185 180 181 182
151 148 182 178 178 187 187 189 207 219 233 207 165 148 172 191 227 228 229 228 221 216 211 195 194 206 209 215 212 194 198 212 187 192 221 216 231 242 32 34 132 160 66 71 132 175 160 189 220 274 314 186 222 241 182 170 160 150 175 199 194 171 138 252 260 200 140 192 190 206 259 272 265 244 217 196 169 171 180 176 182 197 196 191 190 189 188 190
147 144 174 164 170 182 181 185 247 270 278 241 210 213 216 220 209 205 217 221 224 229 224 214 207 203 205 213 206 181 178 201 196 195 219 225 216 206 145 26 352 165 124 123 209 199 127 117 159 252 240 214 235 283 152 163 141 135 166 173 158 147 131 180 235 234 188 229 154 149 248 268 280 297 255 163 164 172 178 178 183 195 197 194 195 196 195 198
173 181 176 170 175 174 168 177 242 237 260 247 243 245 229 221 213 197 197 202 207 208 213 224 205 206 224 210 187 188 188 197 205 200 213 225 205 200 197 33 2 73 110 137 225 166 96 94 155 268 292 301 311 340 2 37 91 120 277 81 132 164 149 167 205 183 155 254 238 144 251 249 316 350 77 142 161 167 174 182 189 197 202 202 202 203 204 205
178 183 181 180 177 172 170 187 200 206 233 229 229 237 230 229 226 206 187 191 196 178 182 227 212 209 224 192 171 201 201 205 226 216 206 202 176 164 5 37 150 156 135 172 193 173 174 138 130 209 306 313 314 332 345 353 42 141 269 321 82 107 103 93 106 103 123 219 197 213 250 252 325 11 65 121 149 167 184 194 198 206 212 212 212 213 213 210
156 161 181 182 178 179 193 217 183 204 222 216 229 235 226 240 236 217 203 201 202 184 177 227 216 199 200 166 169 208 209 211 232 228 174 184 263 330 12 352 211 163 162 179 155 146 178 184 139 162 228 248 252 245 242 266 285 168 225 283 163 126 126 117 139 172 225 227 194 213 248 274 330 10 52 111 161 188 209 210 210 225 235 228 223 222 218 213
157 155 164 178 186 199 221 222 205 223 210 199 232 237 218 231 248 213 202 209 211 199 197 222 201 179 189 177 175 212 225 221 217 199 155 176 253 298 356 354 82 132 122 128 130 115 115 201 192 189 221 237 225 217 210 152 145 221 245 237 234 216 164 151 182 203 208 257 249 241 241 264 278 263 200 198 213 212 227 233 230 233 238 237 233 227 219 212
162 186 165 163 196 224 235 227 215 210 179 185 206 229 212 218 239 212 203 211 208 200 207 235 185 186 203 183 178 219 225 216 210 206 172 164 222 308 353 39 92 123 124 121 124 104 102 232 236 205 232 245 160 178 195 129 162 216 241 256 255 240 167 158 193 210 176 201 251 249 237 232 260 259 206 189 219 232 237 246 247 242 242 242 235 224 214 206
166 198 182 172 183 224 222 219 214 206 197 194 203 292 215 206 206 207 207 211 204 197 201 234 210 204 195 173 180 216 207 202 224 210 176 151 161 5 351 352 25 126 121 103 104 103 123 229 240 168 235 260 127 146 170 158 201 222 232 251 260 257 230 196 213 223 214 226 249 256 251 239 254 264 236 189 209 229 242 252 257 258 257 250 232 215 204 198
186 201 185 185 198 232 213 211 207 206 209 200 211 248 226 198 203 213 195 156 215 210 202 216 225 206 184 172 180 202 201 199 221 218 177 156 171 157 145 290 278 238 88 76 48 94 119 216 215 151 242 273 195 167 178 174 210 246 246 245 249 256 251 231 234 237 228 232 247 257 262 260 257 254 242 230 230 235 246 255 256 255 256 247 224 205 196 195
195 199 180 188 217 261 221 207 195 203 215 206 221 238 226 207 214 218 185 176 205 220 203 214 222 198 184 186 191 210 212 189 194 209 178 159 195 197 187 205 187 126 86 121 253 354 112 178 143 105 305 295 302 131 140 144 179 252 267 263 257 258 256 241 239 241 238 240 247 251 258 265 263 230 216 256 259 237 234 242 243 242 239 226 208 196 193 196
197 196 177 170 204 205 193 194 180 192 215 206 218 226 217 222 217 196 220 227 212 204 202 209 210 194 194 202 202 214 211 182 186 203 182 171 188 190 192 186 161 145 162 178 178 334 145 181 43 80 102 276 284 123 95 7 358 284 274 268 260 254 252 246 236 223 222 232 242 244 247 259 262 235 224 262 261 228 221 222 221 217 208 202 197 191 192 196
200 197 182 164 190 192 180 174 169 190 211 208 215 220 215 220 207 185 220 261 209 201 224 209 189 173 193 209 213 222 217 196 177 160 144 137 129 113 108 143 152 150 164 169 165 168 146 146 138 121 158 259 229 167 188 19 356 285 269 260 253 247 239 242 246 237 223 208 207 224 232 243 257 272 281 266 233 217 216 210 207 205 197 193 193 191 193 198
Height
1557 1557 1557 1558 1558 1558 1558 1558 1558 1558 1558 1558 1558 1558 1558 1558 1558 1558 1558 1558 1558 1557 1557 1557 1557 1556 1556 1555 1554 1554 1553 1552 1551 1550 1549 1548 1547 1547 1548 1549 1549 1549 1549 1549 1548 1548 1548 1549 1549 1549 1549 1549 1549 1549 1550 1550 1550 1551 1553 1557 1558 1560 1557 1550 1549 1548 1547 1546 1544 1543 1542 1542 1541 1538 1537 1536 1536 1534 1533 1531 1530 1530 1530 1530 1529 1530 1529 1529
1557 1557 1557 1557 1557 1557 1557 1557 1557 1557 1557 1557 1557 1557 1557 1557 1557 1557 1557 1557 1557 1556 1556 1556 1556 1555 1555 1554 1554 1553 1552 1551 1550 1549 1547 1546 1547 1547 1548 1548 1549 1549 1549 1549 1548 1548 1548 1548 1548 1548 1549 1549 1549 1549 1550 1550 1550 1551 1555 1558 1556 1555 1550 1545 1545 1545 1545 1545 1543 1542 1541 1541 1540 1538 1536 1535 1534 1534 1532 1529 1527 1527 1526 1527 1528 1529 1529 1528
1556 1556 1556 1556 1556 1556 1556 1556 1556 1556 1556 1556 1556 1556 1556 1556 1556 1556 1556 1556 1556 1556 1555 1555 1555 1554 1554 1554 1553 1552 1551 1550 1548 1547 1547 1546 1547 1547 1547 1548 1548 1548 1548 1548 1548 1548 1548 1548 1548 1548 1548 1549 1549 1549 1549 1549 1550 1550 1553 1556 1553 1549 1546 1544 1544 1543 1543 1543 1542 1541 1540 1539 1538 1537 1536 1535 1533 1532 1532 1529 1526 1524 1522 1524 1526 1527 1527 1527
1554 1555 1555 1555 1555 1555 1555 1555 1555 1555 1555 1555 1555 1555 1555 1555 1555 1555 1555 1555 1555 1554 1554 1554 1553 1553 1553 1552 1552 1551 1550 1549 1547 1547 1547 1547 1547 1546 1546 1547 1547 1547 1547 1547 1547 1547 1547 1547 1548 1548 1548 1549 1549 1549 1549 1549 1549 1550 1550 1551 1548 1546 1546 1543 1542 1542 1542 1542 1540 1539 1539 1537 1536 1537 1535 1535 1533 1529 1528 1528 1527 1524 1521 1521 1524 1525 1525 1524
1553 1554 1554 1554 1554 1554 1554 1554 1554 1554 1554 1554 1554 1554 1554 1554 1554 1554 1553 1553 1553 1553 1553 1552 1552 1552 1551 1551 1551 1550 1550 1549 1546 1546 1547 1546 1546 1546 1546 1546 1546 1546 1546 1546 1547 1547 1547 1547 1547 1548 1548 1549 1549 1549 1548 1547 1548 1549 1547 1546 1544 1545 1545 1542 1541 1542 1540 1540 1539 1537 1537 1536 1535 1536 1535 1536 1534 1527 1525 1526 1526 1524 1521 1520 1522 1523 1523 1522
1552 1552 1552 1553 1553 1553 1553 1553 1553 1553 1553 1553 1553 1553 1553 1553 1553 1552 1552 1552 1552 1552 1551 1551 1550 1550 1550 1550 1550 1549 1550 1549 1546 1546 1546 1546 1546 1545 1545 1545 1545 1545 1545 1545 1546 1546 1546 1547 1547 1548 1548 1548 1549 1549 1547 1547 1548 1548 1546 1544 1544 1544 1543 1541 1541 1541 1540 1539 1537 1536 1535 1534 1534 1534 1534 1534 1530 1525 1523 1524 1524 1523 1522 1520 1520 1521 1521 1521
1550 1551 1551 1551 1551 1551 1552 1552 1552 1552 1552 1552 1552 1551 1551 1551 1551 1551 1551 1551 1550 1550 1550 1549 1549 1549 1549 1548 1548 1548 1548 1546 1545 1546 1545 1545 1545 1545 1545 1545 1544 1544 1544 1544 1545 1545 1545 1546 1546 1547 1548 1548 1548 1547 1547 1547 1548 1548 1546 1544 1543 1543 1542 1541 1541 1540 1539 1537 1536 1535 1534 1533 1533 1533 1533 1530 1524 1522 1522 1522 1522 1522 1521 1520 1519 1519 1520 1520
1549 1549 1549 1550 1550 1550 1550 1550 1550 1550 1550 1550 1550 1550 1550 1550 1549 1549 1549 1549 1549 1549 1548 1548 1548 1547 1547 1547 1547 1547 1546 1544 1544 1545 1544 1544 1544 1544 1544 1544 1544 1543 1543 1544 1544 1544 1545 1545 1545 1546 1547 1547 1547 1546 1546 1546 1546 1546 1546 1544 1543 1543 1541 1540 1540 1538 1537 1535 1535 1535 1532 1531 1532 1532 1530 1526 1521 1520 1520 1520 1520 1520 1520 1519 1519 1519 1519 1518
1548 1548 1548 1548 1548 1549 1549 1549 1549 1549 1549 1549 1548 1548 1548 1548 1548 1548 1548 1547 1547 1547 1547 1546 1546 1546 1546 1546 1546 1546 1544 1543 1543 1543 1543 1542 1542 1542 1543 1543 1543 1543 1543 1543 1543 1543 1544 1544 1544 1545 1545 1546 1546 1545 1545 1546 1546 1544 1544 1543 1542 1542 1540 1539 1537 1535 1534 1533 1533 1534 1530 1528 1529 1530 1526 1521 1519 1519 1519 1519 1519 1519 1519 1518 1518 1518 1517 1516
1546 1546 1547 1547 1547 1547 1547 1547 1547 1547 1547 1547 1547 1547 1547 1547 1546 1546 1546 1546 1546 1546 1545 1545 1545 1545 1545 1544 1545 1544 1542 1541 1542 1541 1541 1541 1541 1541 1541 1542 1542 1542 1542 1542 1542 1542 1543 1543 1543 1544 1544 1544 1544 1544 1545 1545 1545 1543 1542 1541 1540 1540 1538 1537 1535 1532 1531 1531 1530 1532 1529 1526 1528 1530 1524 1518 1518 1518 1517 1517 1518 1518 1518 1518 1518 1516 1516 1515
1545 1545 1545 1545 1545 1545 1545 1545 1545 1546 1546 1545 1546 1546 1545 1545 1545 1545 1545 1545 1545 1544 1544 1544 1543 1543 1543 1543 1543 1542 1540 1540 1540 1540 1540 1540 1540 1540 1540 1541 1541 1541 1541 1541 1541 1541 1542 1542 1543 1543 1543 1544 1544 1544 1543 1543 1543 1542 1541 1540 1538 1538 1536 1534 1532 1530 1530 1529 1527 1529 1528 1525 1527 1528 1522 1516 1517 1517 1515 1515 1517 1518 1517 1517 1516 1515 1515 1515
1543 1543 1544 1544 1544 1544 1544 1544 1544 1544 1544 1544 1544 1544 1544 1544 1543 1543 1543 1543 1543 1543 1542 1542 1542 1541 1541 1541 1539 1538 1538 1539 1539 1538 1539 1538 1538 1539 1539 1539 1539 1540 1540 1540 1540 1540 1541 1541 1542 1543 1542 1543 1543 1543 1542 1542 1542 1541 1541 1541 1538 1537 1535 1530 1528 1528 1528 1527 1525 1527 1529 1526 1524 1523 1517 1515 1516 1516 1515 1514 1515 1517 1516 1515 1514 1514 1513 1513
1541 1542 1542 1542 1542 1542 1542 1542 1542 1542 1542 1542 1542 1542 1542 1542 1542 1542 1542 1542 1541 1541 1541 1541 1540 1540 1540 1538 1536 1536 1537 1536 1537 1537 1537 1537 1537 1537 1537 1538 1538 1539 1539 1539 1539 1539 1540 1540 1541 1542 1542 1542 1542 1542 1542 1541 1542 1540 1540 1542 1539 1540 1536 1527 1526 1528 1527 1526 1524 1527 1533 1528 1520 1517 1515 1515 1516 1515 1514 1513 1515 1517 1515 1514 1513 1512 1511 1511
1540 1540 1540 1540 1541 1541 1541 1541 1541 1541 1541 1541 1541 1541 1540 1540 1540 1540 1540 1540 1540 1540 1540 1539 1539 1539 1538 1535 1534 1534 1535 1534 1535 1535 1535 1535 1535 1535 1536 1536 1537 1537 1538 1538 1538 1539 1539 1540 1540 1541 1541 1541 1541 1541 1542 1542 1541 1541 1541 1542 1543 1545 1537 1526 1525 1527 1526 1525 1523 1526 1534 1529 1519 1516 1515 1515 1516 1514 1512 1512 1515 1516 1514 1513 1512 1511 1510 1510
1538 1538 1538 1539 1539 1539 1539 1539 1539 1539 1539 1539 1539 1539 1539 1539 1539 1539 1539 1538 1538 1538 1538 1538 1538 1537 1536 1533 1532 1533 1532 1532 1533 1533 1534 1534 1534 1534 1534 1535 1536 1536 1536 1537 1537 1538 1538 1539 1540 1540 1540 1540 1540 1542 1544 1543 1541 1542 1543 1543 1545 1546 1538 1528 1525 1525 1525 1524 1524 1527 1532 1528 1521 1517 1515 1515 1515 1514 1512 1512 1514 1514 1513 1512 1511 1511 1510 1510
1536 1536 1537 1537 1537 1538 1538 1538 1538 1538 1538 1538 1538 1538 1538 1538 1537 1537 1537 1537 1537 1537 1537 1537 1536 1537 1536 1532 1531 1531 1531 1531 1531 1532 1532 1532 1533 1533 1534 1534 1534 1535 1535 1536 1536 1537 1538 1539 1539 1539 1540 1540 1541 1543 1546 1547 1544 1544 1545 1544 1543 1544 1542 1535 1525 1523 1525 1524 1525 1527 1528 1527 1522 1517 1515 1514 1513 1513 1512 1512 1514 1514 1513 1512 1512 1511 1510 1510
1534 1535 1535 1536 1536 1536 1537 1537 1537 1537 1537 1537 1537 1537 1537 1536 1536 1536 1536 1536 1536 1535 1536 1536 1535 1536 1533 1530 1529 1529 1529 1530 1530 1531 1531 1531 1532 1532 1533 1533 1534 1535 1535 1535 1536 1536 1537 1538 1539 1539 1539 1540 1541 1543 1549 1552 1547 1543 1545 1545 1542 1541 1542 1538 1528 1523 1524 1525 1526 1526 1527 1526 1520 1516 1514 1513 1513 1513 1512 1513 1514 1514 1513 1513 1512 1511 1510 1510
1533 1533 1534 1534 1535 1535 1535 1535 1535 1535 1535 1535 1535 1535 1535 1535 1535 1535 1535 1535 1535 1535 1535 1534 1535 1536 1531 1527 1528 1528 1528 1529 1529 1530 1530 1530 1531 1531 1532 1533 1533 1534 1534 1535 1535 1536 1537 1537 1538 1539 1540 1542 1542 1543 1547 1547 1540 1538 1541 1542 1541 1540 1539 1537 1532 1526 1524 1525 1526 1526 1526 1524 1519 1516 1514 1512 1513 1513 1512 1514 1514 1514 1514 1513 1512 1511 1511 1510
1531 1532 1532 1533 1533 1534 1534 1534 1534 1534 1534 1534 1534 1534 1534 1534 1533 1533 1533 1533 1533 1533 1533 1531 1531 1532 1529 1525 1526 1527 1527 1528 1528 1528 1529 1529 1530 1531 1531 1532 1532 1533 1534 1535 1534 1535 1536 1537 1539 1541 1540 1539 1537 1537 1537 1534 1532 1534 1537 1539 1540 1539 1536 1533 1531 1527 1525 1526 1525 1525 1525 1522 1518 1515 1512 1512 1514 1514 1513 1514 1514 1515 1514 1514 1513 1512 1512 1511
1530 1530 1531 1531 1532 1532 1532 1532 1532 1532 1533 1533 1533 1533 1532 1532 1532 1531 1531 1530 1530 1529 1528 1527 1527 1527 1525 1524 1525 1526 1526 1526 1527 1527 1528 1528 1529 1530 1530 1531 1532 1533 1533 1533 1534 1534 1535 1537 1539 1537 1533 1530 1529 1530 1530 1530 1533 1535 1537 1539 1539 1539 1536 1530 1528 1525 1525 1527 1524 1524 1524 1522 1519 1514 1511 1512 1513 1513 1513 1514 1515 1516 1515 1515 1515 1514 1513 1512
1528 1529 1529 1530 1530 1531 1531 1531 1531 1531 1531 1531 1532 1531 1531 1531 1531 1531 1529 1528 1527 1526 1525 1525 1525 1524 1523 1523 1524 1524 1525 1525 1525 1526 1527 1527 1528 1529 1530 1531 1532 1533 1532 1532 1534 1534 1535 1538 1534 1527 1524 1525 1527 1529 1531 1533 1534 1535 1537 1538 1538 1538 1535 1528 1526 1525 1525 1526 1525 1524 1524 1521 1518 1515 1513 1512 1513 1515 1515 1515 1517 1516 1516 1517 1516 1515 1514 1514
1526 1527 1528 1529 1529 1529 1530 1529 1530 1530 1530 1530 1530 1530 1530 1530 1530 1529 1529 1527 1524 1523 1523 1522 1522 1521 1520 1521 1522 1523 1524 1523 1524 1524 1525 1526 1527 1528 1528 1530 1531 1531 1532 1533 1534 1536 1538 1535 1525 1521 1524 1526 1528 1530 1531 1533 1534 1536 1538 1539 1538 1536 1533 1527 1525 1525 1524 1525 1523 1523 1524 1521 1517 1516 1518 1516 1516 1518 1518 1518 1518 1518 1518 1518 1517 1517 1516 1516
1525 1525 1526 1527 1527 1528 1528 1528 1528 1528 1529 1528 1529 1529 1528 1529 1528 1528 1529 1527 1523 1519 1519 1518 1518 1517 1517 1518 1519 1520 1521 1520 1521 1522 1523 1525 1525 1526 1527 1528 1529 1530 1531 1532 1532 1537 1538 1529 1520 1521 1525 1527 1528 1529 1531 1533 1534 1535 1537 1539 1536 1532 1533 1530 1524 1524 1524 1524 1524 1523 1523 1521 1516 1517 1521 1521 1520 1520 1520 1520 1520 1520 1520 1519 1519 1519 1518 1517
1522 1523 1524 1525 1526 1526 1526 1527 1527 1527 1527 1527 1527 1527 1527 1528 1528 1528 1527 1527 1523 1517 1514 1514 1514 1514 1515 1515 1516 1517 1518 1518 1519 1520 1521 1522 1523 1525 1525 1525 1528 1529 1530 1529 1530 1532 1528 1520 1519 1521 1523 1526 1527 1527 1530 1533 1533 1533 1532 1533 1531 1527 1529 1529 1526 1525 1523 1525 1525 1523 1523 1519 1513 1516 1521 1523 1522 1522 1522 1523 1523 1523 1523 1521 1520 1520 1520 1519
1520 1521 1522 1523 1525 1524 1525 1526 1525 1526 1525 1525 1526 1526 1527 1527 1527 1528 1527 1527 1525 1516 1512 1512 1512 1513 1512 1513 1514 1515 1517 1517 1517 1518 1519 1520 1522 1523 1523 1524 1526 1528 1528 1529 1531 1531 1523 1518 1520 1522 1524 1526 1526 1526 1528 1530 1531 1530 1526 1524 1524 1522 1524 1526 1528 1528 1528 1528 1526 1525 1528 1523 1513 1514 1521 1522 1523 1525 1525 1525 1526 1526 1524 1523 1522 1522 1522 1521
1518 1519 1520 1521 1523 1523 1524 1523 1523 1524 1524 1524 1525 1524 1526 1526 1526 1527 1526 1529 1526 1513 1509 1511 1511 1511 1511 1512 1514 1515 1517 1516 1515 1516 1517 1519 1520 1521 1523 1523 1524 1525 1526 1528 1531 1529 1521 1518 1519 1521 1523 1525 1526 1527 1525 1527 1531 1530 1524 1520 1521 1522 1524 1526 1527 1529 1531 1531 1528 1527 1532 1529 1517 1512 1517 1522 1525 1527 1528 1528 1528 1527 1526 1525 1525 1525 1524 1523
1516 1517 1518 1520 1520 1521 1522 1522 1522 1522 1522 1523 1523 1524 1526 1525 1527 1526 1527 1534 1526 1507 1506 1510 1509 1510 1510 1512 1513 1514 1517 1515 1514 1516 1516 1518 1519 1520 1522 1522 1522 1523 1523 1526 1530 1524 1518 1518 1519 1520 1522 1525 1526 1525 1522 1524 1528 1528 1524 1522 1522 1523 1525 1526 1527 1529 1531 1531 1531 1528 1529 1532 1525 1515 1516 1521 1524 1528 1529 1529 1529 1528 1528 1527 1527 1526 1525 1525
1513 1515 1516 1517 1518 1519 1520 1520 1521 1520 1521 1521 1521 1524 1524 1524 1527 1525 1529 1537 1521 1502 1505 1508 1507 1509 1509 1511 1512 1512 1514 1513 1514 1516 1515 1517 1519 1519 1521 1521 1522 1522 1521 1525 1527 1520 1516 1518 1519 1519 1522 1524 1522 1520 1520 1521 1523 1524 1523 1524 1523 1523 1525 1526 1527 1530 1533 1535 1533 1529 1530 1533 1525 1517 1520 1520 1520 1526 1530 1530 1530 1530 1529 1528 1528 1527 1526 1526
1511 1512 1513 1515 1516 1517 1518 1518 1519 1519 1520 1520 1521 1523 1523 1525 1526 1524 1532 1533 1511 1499 1506 1506 1507 1509 1508 1510 1512 1512 1513 1513 1514 1515 1515 1517 1518 1518 1520 1520 1521 1522 1521 1523 1523 1518 1517 1518 1517 1517 1519 1519 1517 1518 1519 1519 1520 1521 1523 1524 1524 1526 1528 1528 1530 1530 1535 1537 1531 1527 1530 1530 1520 1514 1520 1520 1515 1521 1528 1530 1531 1530 1529 1528 1528 1528 1527 1527
1508 1509 1511 1513 1513 1514 1515 1515 1516 1517 1518 1519 1520 1521 1522 1524 1525 1529 1538 1527 1505 1502 1506 1505 1506 1508 1508 1510 1512 1512 1513 1513 1513 1514 1516 1517 1518 1518 1519 1520 1520 1521 1522 1523 1521 1518 1517 1517 1517 1516 1515 1514 1515 1519 1520 1519 1520 1521 1523 1524 1524 1528 1529 1531 1533 1533 1537 1534 1523 1521 1523 1525 1521 1512 1514 1516 1513 1517 1524 1528 1530 1529 1529 1528 1528 1528 1527 1527
1505 1506 1508 1509 1509 1510 1510 1511 1512 1515 1516 1517 1519 1520 1521 1523 1525 1533 1532 1514 1503 1505 1504 1504 1507 1506 1507 1509 1510 1512 1512 1513 1513 1514 1516 1517 1518 1519 1520 1520 1521 1523 1525 1523 1520 1519 1518 1517 1516 1513 1512 1514 1515 1518 1520 1521 1521 1521 1523 1524 1527 1531 1531 1534 1537 1538 1540 1530 1517 1519 1523 1525 1524 1511 1509 1515 1514 1515 1517 1521 1525 1526 1527 1527 1527 1527 1527 1528
1501 1502 1504 1505 1506 1506 1507 1507 1509 1512 1514 1515 1517 1518 1521 1525 1528 1528 1520 1507 1506 1506 1501 1504 1506 1504 1506 1507 1507 1510 1511 1511 1512 1513 1515 1518 1519 1519 1518 1518 1519 1523 1525 1523 1521 1520 1517 1515 1515 1513 1512 1513 1514 1518 1522 1523 1522 1523 1525 1528 1534 1539 1540 1539 1539 1541 1539 1526 1519 1524 1525 1524 1519 1509 1512 1518 1517 1516 1515 1516 1520 1522 1524 1525 1526 1527 1527 1528
1497 1498 1500 1502 1502 1503 1504 1505 1507 1509 1511 1513 1516 1516 1520 1526 1525 1517 1511 1507 1506 1502 1499 1501 1503 1503 1505 1505 1506 1508 1509 1510 1510 1512 1514 1517 1519 1518 1517 1517 1517 1518 1520 1522 1523 1520 1516 1514 1515 1514 1512 1510 1512 1516 1519 1520 1522 1524 1523 1527 1534 1542 1546 1541 1538 1540 1534 1521 1521 1526 1524 1520 1512 1510 1520 1522 1518 1518 1517 1518 1521 1521 1524 1525 1526 1527 1527 1528
1494 1495 1497 1498 1500 1500 1500 1502 1504 1507 1509 1511 1513 1516 1522 1524 1516 1509 1507 1505 1502 1500 1500 1500 1502 1504 1504 1504 1505 1505 1507 1508 1508 1510 1513 1516 1520 1519 1515 1516 1517 1516 1517 1522 1522 1520 1518 1515 1511 1510 1508 1507 1508 1510 1511 1514 1519 1522 1520 1523 1526 1529 1533 1531 1527 1527 1523 1517 1521 1525 1521 1513 1505 1513 1524 1522 1520 1520 1518 1520 1522 1523 1525 1525 1526 1527 1527 1528
1490 1492 1494 1495 1497 1498 1498 1500 1502 1505 1507 1508 1511 1517 1519 1516 1510 1507 1506 1502 1500 1501 1501 1501 1502 1505 1505 1505 1504 1502 1502 1505 1507 1509 1512 1514 1516 1515 1512 1511 1513 1515 1517 1521 1520 1519 1520 1513 1506 1506 1506 1505 1507 1507 1508 1512 1516 1522 1522 1522 1523 1519 1518 1522 1522 1522 1522 1521 1521 1517 1513 1512 1514 1520 1525 1523 1522 1523 1521 1522 1523 1524 1526 1526 1526 1527 1526 1528
1488 1490 1491 1493 1494 1496 1497 1498 1500 1503 1504 1505 1510 1514 1510 1504 1503 1503 1500 1497 1499 1500 1501 1504 1504 1506 1508 1505 1504 1503 1501 1503 1506 1508 1510 1512 1512 1511 1509 1506 1507 1510 1511 1514 1515 1515 1517 1512 1506 1508 1507 1506 1508 1507 1508 1510 1512 1520 1523 1518 1518 1517 1513 1518 1524 1526 1527 1526 1519 1510 1508 1515 1519 1520 1523 1524 1523 1524 1524 1524 1524 1525 1526 1525 1526 1526 1526 1527
1486 1488 1489 1490 1492 1494 1495 1497 1499 1501 1502 1503 1506 1505 1501 1498 1498 1498 1496 1496 1498 1498 1501 1506 1505 1505 1507 1506 1504 1504 1502 1503 1506 1506 1508 1511 1507 1505 1505 1503 1503 1504 1503 1506 1508 1508 1511 1510 1506 1507 1506 1506 1508 1507 1507 1509 1509 1516 1519 1513 1514 1517 1516 1520 1525 1527 1531 1528 1519 1510 1507 1510 1510 1512 1522 1527 1524 1524 1525 1524 1525 1525 1525 1525 1525 1525 1526 1526
1485 1487 1488 1488 1490 1492 1494 1496 1497 1499 1500 1502 1502 1499 1498 1498 1496 1496 1496 1496 1498 1499 1501 1505 1503 1502 1505 1506 1505 1504 1503 1505 1506 1506 1507 1507 1503 1499 1499 1499 1501 1502 1501 1503 1505 1505 1508 1509 1506 1506 1507 1507 1509 1509 1509 1510 1509 1511 1512 1510 1513 1516 1517 1521 1525 1526 1527 1527 1519 1509 1506 1507 1505 1508 1519 1522 1519 1521 1523 1524 1525 1523 1523 1524 1524 1524 1525 1526
1485 1487 1488 1488 1489 1491 1492 1494 1495 1496 1498 1500 1499 1497 1497 1496 1494 1494 1495 1496 1498 1500 1502 1503 1503 1503 1504 1505 1504 1503 1504 1504 1505 1506 1506 1505 1502 1497 1497 1498 1500 1502 1501 1502 1504 1505 1507 1510 1508 1507 1508 1508 1509 1510 1510 1510 1510 1511 1511 1511 1513 1515 1515 1517 1521 1520 1520 1522 1520 1512 1507 1503 1500 1503 1509 1510 1513 1517 1519 1521 1522 1520 1521 1522 1522 1523 1524 1525
1483 1486 1488 1488 1489 1491 1492 1493 1493 1494 1494 1494 1495 1495 1494 1494 1494 1493 1494 1495 1497 1499 1501 1501 1503 1504 1502 1502 1502 1502 1503 1503 1503 1504 1504 1502 1500 1497 1497 1499 1499 1501 1502 1502 1504 1505 1507 1511 1510 1508 1510 1510 1509 1508 1507 1506 1508 1511 1512 1513 1513 1514 1516 1516 1518 1517 1515 1518 1519 1517 1512 1501 1498 1504 1504 1502 1508 1513 1514 1517 1518 1519 1520 1520 1521 1522 1522 1523
1481 1485 1487 1487 1488 1490 1491 1492 1492 1492 1492 1492 1492 1493 1493 1493 1493 1493 1494 1495 1496 1496 1498 1499 1500 1501 1500 1501 1501 1500 1501 1502 1501 1502 1502 1500 1499 1498 1499 1500 1500 1501 1502 1502 1504 1505 1507 1510 1510 1508 1508 1508 1507 1507 1507 1506 1508 1509 1510 1511 1511 1512 1515 1518 1518 1516 1514 1516 1514 1515 1513 1501 1499 1505 1503 1501 1507 1509 1511 1514 1515 1517 1517 1518 1519 1520 1521 1522
1480 1483 1485 1486 1488 1489 1491 1493 1493 1492 1491 1490 1490 1491 1492 1491 1492 1492 1492 1494 1495 1495 1496 1497 1497 1497 1498 1498 1498 1498 1499 1500 1500 1500 1500 1498 1497 1497 1498 1500 1500 1500 1501 1503 1505 1505 1506 1509 1510 1507 1506 1507 1508 1509 1509 1508 1508 1509 1510 1511 1511 1512 1513 1515 1517 1514 1514 1517 1516 1517 1515 1505 1501 1505 1503 1502 1505 1506 1509 1512 1512 1514 1515 1516 1518 1518 1520 1520
1479 1481 1483 1485 1487 1488 1492 1495 1495 1494 1492 1489 1489 1489 1490 1490 1490 1491 1491 1493 1494 1495 1495 1495 1494 1495 1495 1494 1496 1497 1498 1498 1498 1497 1496 1496 1496 1497 1498 1499 1499 1500 1501 1503 1504 1505 1506 1509 1510 1508 1505 1505 1508 1509 1509 1509 1508 1508 1510 1511 1513 1512 1511 1513 1515 1515 1516 1516 1515 1519 1517 1505 1502 1505 1503 1503 1505 1506 1509 1511 1511 1513 1514 1515 1516 1517 1518 1518
1479 1481 1482 1484 1487 1488 1490 1491 1491 1493 1491 1489 1489 1488 1488 1488 1487 1488 1489 1490 1491 1492 1493 1492 1491 1491 1491 1492 1494 1495 1496 1497 1496 1494 1495 1495 1495 1497 1498 1497 1498 1499 1500 1501 1502 1502 1505 1508 1511 1512 1511 1509 1509 1510 1510 1509 1509 1510 1512 1514 1515 1513 1515 1518 1517 1520 1522 1515 1511 1518 1514 1503 1503 1506 1504 1505 1507 1508 1510 1511 1511 1512 1513 1513 1514 1515 1516 1516
1479 1482 1483 1484 1485 1486 1486 1485 1486 1488 1488 1488 1489 1487 1487 1487 1484 1484 1486 1487 1487 1488 1489 1489 1488 1488 1489 1491 1492 1492 1493 1493 1493 1495 1495 1496 1497 1498 1498 1498 1498 1498 1499 1500 1500 1500 1503 1506 1507 1510 1513 1513 1510 1509 1511 1510 1510 1513 1514 1515 1515 1514 1516 1518 1518 1521 1522 1516 1513 1516 1511 1504 1506 1508 1507 1507 1508 1508 1509 1510 1510 1510 1511 1512 1512 1513 1513 1514
1477 1480 1482 1484 1485 1484 1482 1482 1484 1485 1485 1488 1488 1486 1485 1485 1482 1481 1484 1484 1485 1486 1486 1486 1486 1487 1489 1490 1491 1492 1492 1491 1493 1494 1494 1496 1498 1499 1498 1498 1498 1498 1499 1499 1500 1501 1505 1507 1505 1503 1503 1503 1504 1507 1511 1511 1510 1510 1512 1512 1513 1515 1516 1518 1520 1523 1520 1518 1518 1513 1508 1508 1507 1505 1507 1509 1508 1508 1508 1508 1509 1508 1509 1509 1510 1510 1511 1512
1473 1475 1476 1481 1483 1482 1481 1481 1482 1483 1483 1485 1485 1482 1481 1482 1481 1482 1482 1481 1482 1483 1484 1484 1484 1485 1486 1488 1491 1491 1491 1491 1493 1493 1494 1495 1498 1500 1499 1498 1498 1498 1499 1499 1500 1502 1506 1506 1505 1504 1503 1502 1505 1508 1511 1511 1509 1509 1510 1509 1509 1512 1516 1518 1520 1519 1517 1519 1518 1508 1505 1510 1506 1501 1505 1508 1507 1507 1507 1506 1506 1506 1506 1507 1508 1509 1509 1510
1470 1471 1470 1473 1475 1475 1475 1476 1477 1479 1481 1482 1482 1479 1478 1480 1481 1481 1479 1479 1480 1480 1482 1483 1481 1481 1482 1485 1488 1489 1490 1492 1493 1492 1493 1496 1498 1500 1500 1499 1499 1498 1499 1500 1500 1502 1505 1505 1506 1508 1507 1505 1509 1511 1511 1511 1511 1510 1510 1508 1507 1509 1512 1516 1518 1515 1514 1517 1513 1505 1505 1509 1504 1499 1502 1505 1505 1505 1504 1504 1504 1504 1504 1505 1505 1506 1507 1508
1467 1468 1469 1470 1470 1469 1468 1469 1472 1476 1477 1479 1481 1478 1476 1477 1478 1477 1477 1478 1479 1478 1478 1479 1478 1478 1481 1482 1484 1486 1487 1489 1491 1491 1491 1494 1497 1499 1499 1499 1499 1499 1499 1500 1500 1501 1504 1505 1507 1509 1507 1506 1510 1512 1512 1512 1513 1511 1510 1509 1509 1509 1511 1514 1514 1510 1511 1513 1509 1506 1508 1506 1500 1498 1500 1502 1502 1502 1502 1502 1501 1501 1502 1502 1502 1504 1505 1506
1464 1465 1466 1468 1468 1467 1468 1469 1471 1474 1474 1477 1478 1474 1473 1476 1475 1474 1475 1476 1476 1475 1475 1476 1476 1477 1480 1480 1480 1481 1480 1482 1485 1487 1489 1492 1495 1496 1497 1496 1497 1499 1501 1501 1501 1502 1504 1506 1508 1509 1509 1509 1512 1512 1512 1513 1513 1513 1511 1508 1508 1510 1511 1511 1510 1509 1511 1511 1507 1507 1510 1504 1495 1495 1498 1498 1499 1499 1499 1499 1498 1499 1499 1499 1500 1501 1503 1505
1461 1462 1462 1464 1466 1466 1467 1468 1469 1472 1473 1473 1471 1469 1471 1473 1471 1472 1473 1471 1471 1472 1472 1472 1474 1476 1479 1479 1478 1477 1477 1479 1481 1482 1484 1487 1488 1490 1491 1491 1492 1497 1499 1501 1502 1501 1503 1506 1508 1509 1510 1511 1513 1515 1513 1511 1514 1514 1509 1504 1504 1507 1507 1504 1504 1505 1505 1505 1506 1509 1510 1502 1493 1493 1496 1496 1496 1497 1496 1496 1496 1496 1497 1497 1498 1500 1501 1503
1459 1460 1461 1462 1463 1464 1464 1466 1468 1470 1467 1464 1463 1464 1466 1467 1468 1471 1473 1470 1469 1470 1470 1470 1472 1475 1477 1478 1476 1474 1476 1479 1480 1481 1483 1485 1486 1487 1489 1489 1490 1492 1496 1499 1501 1500 1501 1503 1505 1508 1510 1510 1513 1516 1512 1513 1518 1512 1498 1494 1496 1498 1500 1500 1499 1498 1497 1500 1504 1505 1501 1495 1492 1493 1494 1494 1494 1495 1494 1493 1494 1494 1495 1496 1497 1499 1500 1501